Regional Weather Roundup
Issued by NWS

Current Version | Previous Version | Text Only | Print | Product List | Glossary Off
Versions: 1 2 3 4 5 6 7 8 9 10 11 12 13 14 15 16 17 18 19 20 21 22 23 24 25 26 27 28 29 30 31 32 33 34 35 36 37 38 39 40 41 42 43 44 45 46 47 48 49 50

000
ASUS44 KJAN 231610
RWRMS

MISSISSIPPI HOURLY WEATHER ROUNDUP
NATIONAL WEATHER SERVICE JACKSON MS
1100 AM CDT THU OCT 23 2014

NOTE: "FAIR: INDICATES FEW OR NO CLOUDS BELOW 12,000 FEET WITH NO
SIGNIFICANT WEATHER AND/OR OBSTRUCTIONS TO VISIBILITY.

MSZ001>002-007>008-010>013-018>021-025>028-034>036-231700-
NORTHWEST MISSISSIPPI

CITY           SKY/WX    TMP DP  RH WIND       PRES   REMARKS
CLARKSDALE     FAIR      59  46  63 E7        30.21F
CLEVELAND      FAIR      57  49  76 E5        30.19F
GREENWOOD      NOT AVBL
GREENVILLE     CLOUDY    58  47  66 VRB3      30.19S
GRENADA          N/A    N/A N/A N/A MISG        N/A
OLIVE BRANCH   PTSUNNY   54  48  82 E5        30.22S
OXFORD         FAIR      57  45  62 CALM      30.22S
TUNICA         PTSUNNY   59  45  58 E3        30.22F
$$

MSZ003>006-009-014>017-022>024-029>033-037>039-231700-
NORTHEAST MISSISSIPPI

CITY           SKY/WX    TMP DP  RH WIND       PRES   REMARKS
COLUMBUS AFB   MOSUNNY   59  45  60 CALM      30.19S
CORINTH        FAIR      55  45  67 VRB3      30.20S
GOLDN TRIANGLE MOSUNNY   59  43  55 NE5       30.19S
STARKVILLE     FAIR      59  45  58 NE5       30.19F
TUPELO         PTSUNNY   57  44  62 SE3       30.19F
$$

MSZ040-058-231700-
CENTRAL MISSISSIPPI

CITY           SKY/WX    TMP DP  RH WIND       PRES   REMARKS
JACKSON INTL   MOSUNNY   64  46  52 VRB5      30.17F
JACKSON HAWKNS MOSUNNY   63  45  51 E7        30.17F
MERIDIAN KEY   SUNNY     63  43  48 NE6       30.17S
MERIDIAN NAS   MOSUNNY   60  44  55 CALM      30.18R
RAYMOND        FAIR      64  59  82 MISG      30.17F
VICKSBURG        N/A    N/A N/A N/A MISG      30.17F
$$

MSZ059>079-231700-
SOUTH MISSISSIPPI

CITY           SKY/WX    TMP DP  RH WIND       PRES   REMARKS
BROOKHAVEN     FAIR      64  45  48 E7        30.18S
COLUMBIA         N/A    N/A N/A N/A MISG        N/A
HATTIESBURG    SUNNY     64  44  48 NE6       30.16F
MCCOMB         SUNNY     64  45  49 NE6       30.15S
NATCHEZ        CLOUDY    59  48  67 E7        30.15F
PINE BELT      SUNNY     64  45  48 NE7       30.17S
$$

MSZ080>082-231700-
COASTAL MISSISSIPPI

CITY           SKY/WX    TMP DP  RH WIND       PRES   REMARKS
BAY ST LOUIS   SUNNY     66  43  42 NE8       30.13S
BILOXI         SUNNY     67  48  50 NE7       30.12S
PASCAGOULA     SUNNY     67  48  50 E5        30.12F
GULFPORT       SUNNY     68  46  45 NE6       30.12S
$$



USA.gov is the U.S. government's official web portal to all federal, state and local government web resources and services.